Probability
6 6 3 6 6 3 3 3 3 3 3 6 0 6 10 10 13 13 13 26 35 39 48 48 48 45 48 45 45 45 39 39 39 52 42 39 42 42 42 48 29 35 39
6 10 6 0 0 0 0 0 0 0 0 0 0 10 6 6 6 13 13 23 39 48 42 45 45 45 48 48 45 39 35 32 35 35 32 42 32 45 39 39 32 39 35
10 3 0 0 0 0 0 0 0 0 0 0 0 3 6 6 3 10 10 13 13 23 32 35 42 42 48 55 45 48 48 42 42 39 35 32 35 42 42 35 35 35 35
6 3 3 3 3 3 3 6 6 3 3 3 3 0 3 3 6 16 6 13 10 10 23 35 45 45 45 55 48 48 39 45 42 35 35 29 26 35 23 29 26 29 29
6 6 3 3 3 3 3 6 6 3 3 3 6 6 6 6 6 10 6 3 3 16 16 19 32 39 52 42 48 52 35 39 39 29 32 32 29 32 32 29 29 29 23
6 6 6 3 3 6 6 6 6 3 3 3 6 3 3 3 3 6 6 10 3 10 13 13 16 26 26 45 45 48 45 42 29 32 32 29 29 26 23 23 23 23 16
3 6 6 6 6 6 6 6 6 3 3 3 3 3 3 3 3 3 3 6 6 13 16 10 10 13 10 26 39 35 42 45 35 32 35 29 26 26 26 23 23 23 19
6 3 3 6 3 3 3 3 3 3 3 3 6 3 3 3 3 3 3 6 6 10 10 6 10 10 10 16 10 19 39 39 39 35 32 29 29 29 19 23 19 19 16
10 3 3 6 3 0 0 0 3 3 6 3 6 10 6 3 3 6 3 3 6 6 6 3 6 6 6 6 13 13 26 26 35 35 32 29 32 29 19 16 19 19 10
10 16 13 3 3 0 0 3 0 0 0 3 3 3 3 3 3 3 3 3 3 3 3 3 3 3 6 6 6 6 13 19 29 35 35 32 29 23 23 16 16 16 13
13 10 6 6 3 3 3 0 0 0 0 0 0 3 6 3 3 3 3 3 3 3 3 3 3 3 6 6 3 6 3 10 13 23 26 26 29 26 16 19 16 19 16
6 6 6 3 3 3 3 3 0 0 0 0 0 0 3 3 6 3 3 3 3 3 3 3 3 3 3 3 3 3 3 0 0 6 10 16 23 23 23 19 16 16 16
6 6 6 6 3 3 3 3 3 0 0 0 0 0 0 3 3 3 3 3 3 3 3 3 3 3 3 3 6 3 6 0 0 0 0 0 10 13 13 16 16 16 16
13 10 6 6 3 3 3 3 3 3 6 3 3 0 0 0 3 3 3 3 3 3 3 3 3 3 3 3 0 0 6 0 0 0 0 0 0 3 6 6 10 6 10
13 13 10 6 6 6 3 3 6 6 6 6 3 3 0 0 0 3 3 3 3 3 3 3 6 6 6 6 0 3 0 0 0 0 0 0 0 0 0 0 0 0 0
10 10 10 6 10 13 10 10 6 6 6 6 6 6 3 3 0 3 3 3 3 3 3 3 0 0 3 3 3 6 6 0 0 0 0 0 0 0 0 0 0 0 0
10 10 10 10 10 10 6 10 10 10 10 10 10 6 10 10 6 3 3 3 3 3 3 3 3 3 6 3 3 3 3 3 6 0 0 0 0 0 0 0 0 0 0
3 10 10 10 10 13 6 10 10 13 13 13 13 13 13 10 10 6 3 3 3 3 3 3 6 3 6 6 6 3 3 3 3 0 0 0 0 0 0 0 0 0 0
3 3 6 10 10 10 6 6 6 6 10 10 13 13 13 13 13 13 10 6 3 3 3 3 6 6 10 10 10 6 3 6 3 3 0 0 0 0 0 0 0 0 0
6 10 13 13 13 10 10 10 10 10 6 6 10 10 13 13 13 13 13 13 6 6 6 10 10 10 10 10 10 10 10 6 6 6 3 0 0 0 0 0 0 0 0
6 6 6 13 10 13 13 13 13 13 13 13 13 13 16 13 13 13 13 13 13 13 6 6 6 10 10 10 10 10 10 10 6 6 6 6 6 6 6 0 0 0 0
6 6 6 6 6 6 10 3 6 10 13 13 13 13 13 13 6 6 6 6 13 13 13 10 13 13 13 13 10 6 10 10 10 6 6 6 6 6 6 3 3 0 0
3 6 6 6 6 6 3 3 0 3 6 10 13 13 13 13 13 16 10 0 0 0 3 13 13 13 13 10 10 10 10 10 10 13 3 10 10 6 6 6 0 0 0
3 3 3 3 3 3 0 0 0 0 3 6 3 6 10 13 10 10 16 16 16 10 0 0 10 13 13 10 10 13 13 13 13 10 6 10 10 6 6 6 3 0 0
3 3 3 3 3 3 0 0 0 3 3 3 3 3 6 6 6 3 6 13 16 13 3 0 0 3 0 0 3 10 13 13 6 6 6 10 10 6 6 6 3 0 0
3 3 3 3 3 3 0 0 0 3 3 3 3 3 3 3 3 0 3 6 10 10 10 10 3 0 0 0 0 0 6 6 6 6 6 6 6 6 6 3 0 0 0
Height
5868 5868 5867 5867 5866 5866 5865 5865 5865 5865 5865 5865 5865 5865 5865 5865 5866 5866 5866 5866 5866 5867 5867 5868 5868 5869 5869 5870 5871 5872 5873 5873 5874 5875 5877 5878 5879 5880 5881 5882 5882 5883 5884
5868 5867 5867 5866 5866 5865 5865 5865 5865 5865 5864 5864 5864 5864 5864 5864 5864 5864 5864 5864 5864 5865 5866 5866 5867 5867 5867 5868 5869 5870 5871 5871 5872 5873 5874 5875 5876 5877 5878 5879 5880 5881 5882
5867 5867 5866 5866 5865 5865 5864 5864 5864 5864 5864 5863 5863 5862 5862 5862 5862 5862 5862 5862 5863 5863 5864 5864 5865 5865 5865 5866 5866 5867 5868 5869 5869 5870 5871 5872 5873 5874 5875 5876 5877 5878 5879
5867 5866 5866 5865 5865 5864 5864 5863 5863 5862 5862 5862 5861 5861 5860 5860 5860 5861 5860 5860 5861 5861 5862 5862 5862 5863 5863 5863 5864 5864 5865 5865 5866 5867 5868 5869 5870 5871 5872 5873 5874 5875 5876
5866 5865 5865 5864 5864 5863 5863 5862 5861 5861 5860 5860 5859 5859 5859 5859 5858 5859 5859 5859 5859 5859 5860 5860 5860 5860 5861 5861 5861 5861 5862 5862 5863 5864 5865 5866 5867 5868 5869 5870 5871 5871 5872
5866 5865 5864 5863 5863 5862 5862 5861 5860 5860 5859 5858 5858 5857 5857 5857 5856 5857 5857 5857 5857 5857 5857 5857 5857 5858 5858 5858 5858 5858 5858 5859 5860 5861 5861 5862 5863 5864 5865 5866 5867 5868 5869
5864 5864 5863 5863 5862 5861 5860 5860 5859 5858 5857 5856 5856 5856 5855 5855 5854 5854 5854 5854 5854 5854 5854 5854 5855 5855 5855 5855 5855 5855 5855 5856 5856 5857 5857 5858 5859 5860 5861 5862 5863 5864 5865
5863 5863 5862 5861 5860 5860 5859 5858 5857 5856 5855 5855 5854 5853 5853 5853 5852 5852 5852 5851 5851 5851 5851 5851 5852 5852 5852 5852 5852 5852 5852 5852 5852 5853 5853 5854 5854 5855 5856 5858 5859 5859 5860
5861 5861 5860 5859 5858 5858 5857 5856 5855 5854 5853 5853 5852 5851 5851 5851 5850 5849 5848 5848 5848 5848 5848 5848 5848 5848 5848 5849 5849 5849 5849 5849 5848 5849 5849 5849 5849 5850 5851 5853 5854 5855 5856
5859 5858 5858 5857 5856 5855 5854 5853 5852 5852 5851 5850 5849 5848 5848 5847 5847 5846 5846 5845 5844 5844 5844 5844 5844 5844 5844 5844 5844 5844 5844 5844 5845 5844 5844 5845 5845 5845 5846 5847 5849 5850 5850
5857 5856 5855 5854 5853 5853 5852 5850 5849 5849 5848 5847 5846 5845 5844 5844 5843 5843 5842 5842 5841 5840 5840 5840 5839 5839 5839 5839 5839 5839 5839 5840 5840 5840 5840 5840 5841 5841 5842 5843 5844 5845 5845
5855 5854 5852 5851 5850 5849 5848 5847 5846 5845 5844 5843 5842 5841 5840 5840 5839 5838 5837 5837 5836 5836 5835 5835 5834 5834 5834 5834 5834 5834 5834 5834 5834 5834 5835 5835 5836 5836 5837 5838 5839 5839 5840
5852 5851 5849 5848 5847 5845 5844 5843 5842 5841 5840 5839 5838 5837 5836 5835 5834 5833 5833 5832 5831 5831 5830 5829 5829 5829 5828 5828 5828 5828 5828 5828 5828 5828 5829 5829 5830 5831 5831 5832 5833 5833 5834
5849 5847 5846 5844 5843 5842 5840 5839 5838 5836 5835 5834 5833 5832 5831 5830 5829 5828 5827 5826 5826 5825 5825 5824 5823 5823 5822 5822 5821 5821 5821 5821 5821 5822 5822 5823 5823 5824 5825 5826 5826 5827 5828
5845 5844 5842 5840 5839 5837 5835 5834 5833 5831 5830 5829 5828 5826 5825 5824 5823 5822 5821 5820 5820 5819 5818 5817 5817 5816 5815 5815 5814 5814 5814 5814 5814 5815 5815 5815 5816 5816 5817 5818 5819 5820 5821
5841 5840 5838 5836 5834 5832 5830 5829 5827 5826 5824 5823 5822 5820 5819 5818 5816 5815 5814 5813 5812 5811 5811 5810 5809 5808 5808 5807 5807 5806 5806 5806 5806 5807 5807 5808 5808 5809 5810 5810 5811 5813 5814
5837 5835 5833 5832 5829 5828 5826 5824 5822 5820 5818 5817 5815 5814 5812 5811 5809 5808 5807 5806 5804 5803 5803 5802 5801 5800 5799 5799 5798 5797 5797 5797 5797 5798 5798 5799 5800 5801 5802 5802 5804 5805 5806
5832 5830 5828 5827 5825 5823 5821 5819 5816 5814 5812 5810 5809 5807 5806 5804 5803 5801 5799 5798 5796 5795 5794 5793 5792 5791 5790 5790 5789 5788 5788 5788 5788 5788 5789 5790 5791 5792 5793 5794 5795 5796 5797
5827 5825 5823 5821 5819 5817 5815 5813 5811 5809 5806 5804 5802 5800 5798 5797 5795 5793 5791 5790 5788 5786 5785 5784 5783 5781 5781 5780 5779 5779 5779 5778 5778 5779 5779 5780 5781 5782 5783 5784 5785 5787 5788
5821 5819 5817 5815 5814 5812 5809 5807 5805 5802 5800 5798 5796 5793 5791 5789 5787 5785 5783 5781 5779 5778 5776 5774 5773 5772 5771 5769 5769 5769 5769 5769 5769 5769 5769 5770 5771 5772 5773 5774 5775 5777 5778
5815 5813 5811 5809 5807 5805 5803 5800 5798 5796 5793 5791 5789 5786 5784 5782 5780 5777 5775 5773 5771 5769 5767 5765 5764 5762 5761 5760 5759 5759 5759 5759 5758 5758 5759 5759 5760 5761 5762 5763 5765 5766 5767
5808 5806 5805 5802 5800 5798 5795 5793 5791 5789 5786 5784 5781 5779 5776 5774 5771 5769 5766 5764 5762 5760 5758 5756 5755 5753 5752 5750 5750 5749 5749 5749 5749 5749 5748 5749 5749 5750 5751 5752 5754 5755 5757
5802 5800 5798 5795 5793 5790 5788 5785 5783 5781 5778 5776 5773 5771 5768 5766 5763 5760 5758 5755 5753 5750 5749 5747 5746 5744 5742 5741 5740 5740 5739 5739 5739 5738 5738 5739 5739 5739 5740 5741 5743 5745 5746
5795 5792 5790 5787 5785 5783 5780 5778 5775 5773 5770 5768 5765 5762 5760 5757 5754 5752 5749 5747 5744 5742 5739 5738 5736 5735 5733 5731 5730 5730 5729 5729 5729 5728 5728 5729 5729 5729 5730 5731 5732 5734 5736
5787 5785 5782 5780 5777 5775 5772 5770 5767 5765 5762 5759 5757 5754 5751 5749 5746 5743 5741 5738 5735 5733 5730 5728 5727 5725 5723 5722 5721 5721 5720 5720 5720 5719 5719 5719 5719 5719 5720 5721 5723 5724 5726
5780 5777 5775 5772 5769 5767 5764 5762 5759 5756 5754 5751 5748 5746 5743 5740 5737 5734 5732 5729 5727 5724 5721 5719 5717 5715 5714 5712 5711 5711 5711 5710 5710 5710 5709 5709 5709 5709 5711 5712 5713 5714 5715
Wind_Speed
3 3 3 3 3 3 3 3 3 3 3 4 4 5 5 5 6 6 6 7 7 8 8 8 9 10 11 11 12 11 11 11 12 12 12 12 12 12 12 12 12 12 11
3 4 4 4 4 4 3 3 3 3 4 5 5 5 5 5 6 7 6 7 7 8 8 9 9 10 10 10 12 12 12 11 11 12 13 13 13 13 13 13 13 13 13
3 4 4 4 4 4 4 3 3 4 4 5 5 5 5 6 6 6 6 7 7 8 9 10 10 10 11 11 12 12 13 12 13 12 12 13 14 14 14 14 13 14 14
3 4 5 5 4 4 4 4 4 5 5 6 5 6 6 7 7 7 7 7 7 8 9 10 11 10 11 12 13 13 13 13 14 14 13 14 14 15 15 15 15 15 15
3 4 5 5 5 5 5 5 5 5 6 6 6 6 7 7 7 8 8 8 8 8 9 10 11 11 12 13 13 14 14 15 14 15 15 15 15 15 16 16 16 16 15
5 5 6 5 5 5 5 6 6 6 6 6 7 7 7 7 8 8 9 9 9 10 10 10 10 11 12 12 14 14 14 14 15 16 16 17 17 17 17 17 17 17 17
6 6 7 6 6 6 7 7 7 7 7 7 8 8 8 8 8 8 9 10 10 11 11 11 11 12 12 13 14 15 15 16 16 16 16 17 18 18 18 18 17 18 18
7 7 7 7 7 8 8 8 8 8 8 8 9 9 9 10 10 10 11 11 11 12 12 12 13 13 13 13 14 15 15 15 16 16 17 17 18 18 18 19 19 19 19
7 8 8 8 9 9 10 10 9 9 9 10 9 9 10 10 11 11 12 12 13 13 13 13 13 14 15 15 15 16 16 17 16 16 17 17 18 18 19 20 19 19 20
9 9 9 10 10 10 11 11 11 11 11 11 11 12 12 12 12 12 13 14 14 14 14 15 15 15 16 17 17 17 18 18 17 17 17 18 18 19 20 21 20 20 21
10 11 11 11 12 12 13 13 13 13 13 13 14 13 13 14 14 14 14 15 16 16 16 17 17 17 17 18 18 19 20 20 20 19 19 19 19 20 20 20 21 21 22
12 12 12 13 14 14 14 14 15 15 15 15 15 15 16 15 15 16 15 15 16 17 18 19 19 19 20 20 20 20 21 21 21 21 20 20 20 20 21 22 22 22 21
14 14 14 15 15 15 15 15 16 16 16 16 17 17 17 17 17 17 18 18 18 19 20 20 21 21 22 22 23 23 23 23 23 23 23 23 23 22 22 24 24 23 22
15 15 16 16 16 16 16 16 17 17 17 18 18 18 19 19 19 19 19 20 20 20 21 22 23 23 24 24 25 25 26 26 26 26 26 26 26 27 26 26 26 25 24
16 16 17 17 17 17 17 18 19 18 18 19 19 20 20 20 20 21 21 22 22 22 22 23 25 26 26 26 26 27 27 27 28 28 28 28 28 28 28 28 28 27 26
17 17 18 18 18 19 19 19 19 19 20 20 21 21 22 22 22 22 23 23 24 24 24 25 26 27 28 29 29 29 29 30 30 30 30 30 29 30 30 29 29 28 28
18 18 18 19 19 19 20 20 21 21 21 22 23 22 22 23 23 23 24 24 25 25 26 26 27 28 29 30 31 31 32 31 31 31 31 31 31 30 30 30 31 30 30
19 19 20 20 20 20 20 21 21 22 23 24 24 23 24 23 23 24 25 26 26 27 27 28 29 29 30 31 31 31 32 32 31 32 32 32 32 32 31 31 31 30 31
20 20 21 21 22 22 22 22 23 23 24 24 24 24 24 24 24 25 26 27 28 28 29 29 30 30 30 31 31 31 32 33 33 33 33 32 33 33 33 32 30 31 31
21 22 22 23 23 24 24 24 24 25 25 24 25 25 24 24 25 26 27 28 29 29 30 30 31 31 31 31 31 32 32 33 34 35 34 34 34 34 34 33 32 32 32
23 23 24 24 25 25 25 25 26 26 26 25 26 26 26 25 26 27 28 29 29 30 30 31 31 31 32 32 31 31 31 32 33 34 34 34 34 34 34 34 34 33 33
24 25 25 25 26 27 27 27 27 26 26 26 27 27 26 27 27 28 29 29 30 30 30 30 30 30 30 30 31 31 31 31 31 32 32 33 34 34 34 33 33 33 34
25 26 27 27 27 27 28 28 27 27 28 28 28 28 28 28 29 28 28 29 30 30 30 30 30 29 30 31 31 31 31 31 30 31 31 32 32 33 34 34 34 34 34
26 27 28 28 28 28 28 28 28 28 28 29 29 28 28 29 29 29 29 29 30 31 31 31 31 30 31 31 31 30 29 29 30 30 30 30 31 32 32 31 32 33 34
27 28 28 28 28 28 28 29 29 29 29 29 29 29 29 30 30 30 30 30 31 31 31 31 31 31 31 30 29 29 29 29 29 29 30 30 30 30 30 30 31 31 32
28 29 29 29 29 29 29 29 29 29 29 29 29 30 30 30 30 30 30 30 31 31 31 31 31 31 30 29 29 29 29 29 30 30 30 30 30 30 29 28 30 31 31
Wind_Direction
11 8 3 352 332 325 316 301 299 286 273 270 270 270 269 265 264 261 256 255 250 244 241 239 240 241 243 241 240 241 242 242 243 239 237 238 240 241 239 238 238 240 243
9 3 355 347 341 340 336 311 301 300 287 280 279 278 273 269 264 263 257 254 254 245 242 242 241 242 243 244 244 240 241 241 245 245 241 238 239 240 242 243 241 243 246
2 1 353 347 347 350 344 325 312 300 296 289 286 282 275 267 265 265 263 258 255 252 250 248 247 247 247 249 248 244 242 242 245 247 245 239 240 242 244 244 245 245 244
343 340 339 342 333 326 322 317 309 286 280 283 283 282 278 274 264 264 265 263 260 260 254 252 253 251 251 251 251 250 249 246 244 245 245 243 244 247 247 248 249 247 245
336 330 333 336 331 325 318 311 308 297 286 285 283 282 280 281 273 267 265 264 261 261 260 259 258 255 257 255 253 251 251 249 244 245 243 244 247 249 250 250 249 248 247
335 329 328 327 325 324 320 314 308 300 296 293 288 285 283 277 275 271 271 272 268 266 266 264 262 261 261 259 255 252 253 253 250 247 245 245 247 249 250 251 250 249 248
326 323 321 317 316 318 315 311 307 302 298 294 290 285 282 279 273 273 273 271 269 267 267 264 264 263 262 260 259 259 257 255 254 254 252 250 251 250 251 251 251 250 250
321 320 319 316 312 312 311 307 305 302 300 295 290 286 284 282 276 272 272 272 272 272 271 269 266 264 264 264 264 264 262 258 254 254 254 255 255 252 253 252 253 252 251
315 315 312 309 308 307 307 306 302 299 296 294 292 290 286 283 279 279 277 274 272 271 271 271 272 269 267 266 265 264 262 261 258 255 256 256 255 253 252 253 253 252 251
314 308 306 303 303 303 303 303 301 296 293 292 290 288 287 286 283 280 279 277 274 271 269 269 271 272 271 268 266 265 263 262 257 257 257 256 255 253 254 254 254 255 255
315 313 310 302 301 302 302 301 300 298 294 291 289 288 287 285 284 284 279 275 273 272 270 270 269 269 269 269 268 266 263 262 259 258 260 259 257 256 254 255 253 255 255
313 311 312 309 303 301 301 300 297 295 293 290 288 288 287 286 285 283 281 277 273 272 271 270 269 269 269 269 270 267 266 263 259 258 258 259 257 257 255 257 256 256 255
313 310 307 305 303 302 300 298 296 295 292 290 289 288 287 287 284 282 281 279 275 273 273 272 271 270 271 271 271 267 266 265 262 258 257 258 257 257 257 257 257 256 255
308 308 308 307 304 302 298 295 293 292 292 290 289 288 286 285 284 283 282 280 277 275 274 274 273 273 272 272 271 268 265 265 264 258 258 258 259 257 256 259 257 255 253
304 304 306 307 307 303 299 295 292 291 291 290 289 289 287 285 283 283 282 281 280 278 276 275 274 274 273 273 272 271 269 268 266 263 261 260 259 258 256 259 258 255 253
302 304 305 305 307 307 302 296 294 293 290 290 289 289 287 286 284 281 280 280 280 279 278 277 275 274 274 273 272 272 271 268 268 267 265 264 262 259 259 259 257 256 255
301 302 302 304 305 305 305 301 299 294 293 293 292 291 289 288 287 285 284 282 281 280 279 279 277 276 275 274 273 272 272 270 269 268 266 265 264 262 261 260 259 257 257
301 300 300 300 301 303 304 303 301 299 296 295 294 292 290 288 288 288 287 286 284 283 281 280 279 277 275 274 273 271 270 270 269 268 267 264 263 262 262 261 260 260 259
300 299 299 298 298 300 301 301 300 300 300 299 296 294 292 289 289 288 287 286 286 285 283 282 281 279 278 276 274 272 271 269 268 268 267 265 263 262 262 261 260 261 259
299 298 298 298 298 298 300 300 299 297 299 298 299 296 294 292 291 290 289 288 287 286 285 284 283 281 279 277 275 274 272 270 269 269 268 264 263 263 262 261 261 260 258
297 297 298 297 297 298 298 299 299 297 297 296 298 296 294 293 293 293 292 291 290 289 288 286 285 283 281 280 277 276 273 272 271 270 268 266 265 264 262 261 261 260 258
296 296 296 295 297 298 298 298 296 296 296 297 296 295 295 294 293 292 291 291 291 291 290 288 287 284 282 280 278 277 275 273 272 270 269 268 266 264 262 261 259 259 258
296 297 297 297 296 297 297 295 294 295 296 295 294 294 294 293 293 293 293 292 292 292 291 290 288 287 284 281 279 278 276 274 272 271 270 268 266 264 262 261 259 259 259
297 298 300 298 296 297 297 295 294 294 294 295 296 296 294 293 293 294 294 294 294 292 291 289 287 286 285 283 281 279 277 275 273 273 272 269 268 264 262 259 257 258 258
298 299 300 299 298 298 298 296 296 296 295 295 296 296 295 295 294 294 294 295 295 293 291 290 288 287 285 282 279 278 277 276 275 273 272 269 268 266 262 259 258 257 257
298 298 298 298 298 298 297 297 297 295 295 295 296 296 295 297 295 295 295 296 295 294 291 290 288 286 284 281 279 278 277 276 276 274 272 269 267 265 262 260 259 257 257